| time (UTC) | temp F | wind direction | speed knots | gust knots | rain 1hr in | rain 24hr in | rain mn in | humidity % | barometer mb |
| 20260508203048 | 49 | 339 | 2.6 | 7.8 | 0.00 | 0.26 | 0.01 | 73 | 1002.5 |
| 20260508201547 | 48 | 287 | 2.6 | 7.0 | 0.00 | 0.26 | 0.01 | 75 | 1002.2 |
| 20260508200047 | 48 | 297 | 2.6 | 6.1 | 0.00 | 0.65 | 0.01 | 74 | 1001.9 |
| 20260508194614 | 48 | 283 | 3.5 | 7.0 | 0.00 | 0.65 | 0.01 | 75 | 1001.7 |
| 20260508193046 | 48 | 289 | 2.6 | 7.0 | 0.00 | 0.65 | 0.01 | 75 | 1001.6 |
| 20260508191546 | 50 | 326 | 4.3 | 9.6 | 0.00 | 0.65 | 0.01 | 72 | 1001.5 |
| 20260508190044 | 51 | 341 | 4.3 | 8.7 | 0.00 | 0.79 | 0.01 | 69 | 1001.3 |
| 20260508184544 | 53 | 7 | 5.2 | 8.7 | 0.00 | 0.79 | 0.01 | 64 | 1001.2 |
| 20260508183142 | 54 | 335 | 4.3 | 8.7 | 0.00 | 0.79 | 0.01 | 65 | 1001.1 |
| 20260508181639 | 55 | 341 | 4.3 | 9.6 | 0.00 | 0.79 | 0.01 | 61 | 1001.4 |
| 20260508180037 | 54 | 63 | 4.3 | 10.4 | 0.00 | 0.79 | 0.01 | 61 | 1001.6 |
| 20260508174542 | 53 | 353 | 4.3 | 7.8 | 0.00 | 0.79 | 0.01 | 66 | 1001.5 |
| 20260508173038 | 51 | 305 | 2.6 | 6.1 | 0.00 | 0.79 | 0.01 | 73 | 1001.7 |
| 20260508171533 | 50 | 274 | 1.7 | 6.1 | 0.00 | 0.79 | 0.01 | 75 | 1002.0 |
| 20260508170030 | 49 | 279 | 1.7 | 5.2 | 0.00 | 0.79 | 0.01 | 77 | 1002.1 |
| 20260508164527 | 48 | 273 | 1.7 | 6.1 | 0.00 | 0.79 | 0.01 | 77 | 1002.0 |
| 20260508163027 | 48 | 289 | 1.7 | 4.3 | 0.00 | 0.79 | 0.01 | 77 | 1001.8 |
| 20260508161530 | 49 | 325 | 3.5 | 7.0 | 0.00 | 0.79 | 0.01 | 76 | 1001.9 |
| 20260508160029 | 48 | 283 | 1.7 | 5.2 | 0.00 | 0.79 | 0.01 | 76 | 1002.0 |
| 20260508154529 | 49 | 317 | 2.6 | 7.8 | 0.00 | 0.79 | 0.01 | 75 | 1001.9 |
| 20260508153034 | 49 | 343 | 5.2 | 7.8 | 0.00 | 0.79 | 0.01 | 72 | 1002.0 |
| 20260508151524 | 50 | 325 | 2.6 | 7.8 | 0.00 | 0.79 | 0.01 | 73 | 1001.9 |
| 20260508150022 | 50 | 352 | 3.5 | 8.7 | 0.00 | 0.80 | 0.01 | 75 | 1002.2 |
| 20260508144521 | 49 | 324 | 4.3 | 8.7 | 0.00 | 0.80 | 0.01 | 77 | 1002.1 |
| 20260508143024 | 49 | 309 | 4.3 | 8.7 | 0.01 | 0.80 | 0.01 | 78 | 1002.2 |
| 20260508141520 | 49 | 338 | 6.1 | 11.3 | 0.01 | 0.80 | 0.01 | 78 | 1002.3 |
| 20260508140018 | 49 | 311 | 3.5 | 8.7 | 0.01 | 0.80 | 0.01 | 79 | 1002.5 |
| 20260508134518 | 50 | 327 | 3.5 | 7.8 | 0.01 | 0.80 | 0.01 | 79 | 1002.7 |
| 20260508133018 | 49 | 283 | 3.5 | 8.7 | 0.00 | 0.79 | 0.00 | 80 | 1003.0 |
| 20260508131516 | 49 | 7 | 4.3 | 8.7 | 0.00 | 0.79 | 0.00 | 79 | 1002.6 |
| 20260508130016 | 49 | 337 | 4.3 | 8.7 | 0.00 | 0.79 | 0.00 | 81 | 1002.4 |
| 20260508124513 | 48 | 325 | 4.3 | 7.8 | 0.00 | 0.79 | 0.00 | 85 | 1002.3 |
| 20260508123012 | 46 | 281 | 1.7 | 5.2 | 0.00 | 0.79 | 0.00 | 90 | 1002.4 |
| 20260508121510 | 44 | 279 | 0.9 | 3.5 | 0.00 | 0.79 | 0.00 | 91 | 1002.7 |
| 20260508120009 | 43 | 292 | 1.7 | 6.1 | 0.00 | 0.79 | 0.00 | 92 | 1002.8 |
| 20260508114512 | 42 | 269 | 1.7 | 5.2 | 0.00 | 0.79 | 0.00 | 92 | 1002.9 |
| 20260508113013 | 42 | 337 | 1.7 | 3.5 | 0.00 | 0.79 | 0.00 | 92 | 1002.7 |
| 20260508111511 | 41 | 337 | 0.9 | 4.3 | 0.00 | 0.79 | 0.00 | 92 | 1002.7 |
| 20260508110007 | 40 | 337 | 1.7 | 3.5 | 0.00 | 0.79 | 0.00 | 92 | 1002.7 |
| 20260508104506 | 40 | 335 | 0.0 | 1.7 | 0.00 | 0.79 | 0.00 | 92 | 1003.1 |
| 20260508103015 | 40 | 335 | 0.9 | 2.6 | 0.00 | 0.79 | 0.00 | 92 | 1003.4 |
| 20260508101506 | 40 | 341 | 0.9 | 2.6 | 0.00 | 0.79 | 0.00 | 92 | 1003.0 |
| 20260508100003 | 40 | 343 | 0.0 | 0.0 | 0.00 | 0.79 | 0.00 | 92 | 1003.0 |
| 20260508094500 | 40 | 343 | 0.0 | 0.0 | 0.00 | 0.79 | 0.00 | 92 | 1002.3 |
| 20260508093100 | 40 | 343 | 0.0 | 0.0 | 0.00 | 0.79 | 0.00 | 92 | 1002.5 |
| 20260508091602 | 40 | 343 | 0.0 | 0.0 | 0.00 | 0.79 | 0.00 | 92 | 1002.5 |
| 20260508084556 | 41 | 343 | 0.9 | 1.7 | 0.00 | 0.82 | 0.00 | 92 | 1002.5 |
| 20260508083100 | 41 | 343 | 0.0 | 2.6 | 0.00 | 0.82 | 0.00 | 91 | 1002.3 |
| 20260508081608 | 41 | 343 | 0.9 | 2.6 | 0.00 | 0.82 | 0.00 | 91 | 1002.3 |
| 20260508080048 | 42 | 356 | 0.9 | 3.5 | 0.00 | 0.84 | 0.00 | 91 | 1002.1 |
| 20260508074547 | 43 | 345 | 2.6 | 5.2 | 0.00 | 0.84 | 0.00 | 92 | 1002.0 |
| 20260508073045 | 43 | 345 | 2.6 | 7.0 | 0.00 | 0.84 | 0.00 | 92 | 1002.2 |
| 20260508071544 | 43 | 347 | 2.6 | 7.0 | 0.00 | 0.84 | 0.00 | 92 | 1002.3 |
| 20260508070045 | 44 | 327 | 1.7 | 7.8 | 0.00 | 0.84 | 0.00 | 92 | 1002.0 |
| 20260508064536 | 45 | 356 | 3.5 | 7.0 | 0.00 | 0.84 | 0.00 | 91 | 1002.0 |
| 20260508063033 | 46 | 358 | 2.6 | 7.0 | 0.00 | 0.84 | 0.00 | 92 | 1002.1 |
| 20260508061532 | 47 | 38 | 5.2 | 7.8 | 0.00 | 0.84 | 0.00 | 92 | 1002.1 |
| 20260508060029 | 47 | 351 | 1.7 | 3.5 | 0.00 | 0.84 | 0.00 | 92 | 1001.7 |
| 20260508054525 | 48 | 350 | 1.7 | 3.5 | 0.00 | 0.84 | 0.00 | 92 | 1001.7 |
| 20260508053030 | 49 | 350 | 1.7 | 5.2 | 0.00 | 0.84 | 0.00 | 92 | 1001.7 |
| 20260508051528 | 49 | 258 | 0.9 | 2.6 | 0.00 | 0.84 | 0.00 | 92 | 1001.4 |
| 20260508050019 | 49 | 257 | 0.9 | 3.5 | 0.00 | 0.84 | 0.00 | 92 | 1001.4 |
| 20260508044519 | 49 | 224 | 0.0 | 0.0 | 0.00 | 0.84 | 0.00 | 92 | 1001.7 |
| 20260508043019 | 49 | 224 | 0.0 | 0.0 | 0.00 | 0.84 | 0.00 | 92 | 1001.7 |
| 20260508041516 | 49 | 224 | 0.0 | 0.0 | 0.00 | 0.84 | 0.00 | 92 | 1001.8 |
| 20260508040014 | 49 | 224 | 0.0 | 0.0 | 0.00 | 0.84 | 0.00 | 92 | 1001.9 |
| 20260508034509 | 49 | 224 | 0.0 | 0.9 | 0.00 | 0.84 | 0.00 | 92 | 1002.1 |
| 20260508033006 | 49 | 224 | 0.0 | 1.7 | 0.00 | 0.84 | 0.00 | 92 | 1002.2 |
| 20260508031600 | 49 | 224 | 0.9 | 2.6 | 0.00 | 0.84 | 0.00 | 92 | 1002.2 |
| 20260508024600 | 49 | 223 | 0.0 | 2.6 | 0.00 | 0.84 | 0.84 | 92 | 1002.2 |
| 20260508023056 | 49 | 223 | 0.0 | 4.3 | 0.00 | 0.84 | 0.84 | 92 | 1001.8 |
| 20260508021555 | 49 | 222 | 0.0 | 3.5 | 0.00 | 0.84 | 0.84 | 92 | 1001.9 |
| 20260508020055 | 49 | 223 | 0.9 | 3.5 | 0.00 | 0.84 | 0.84 | 92 | 1002.1 |
| 20260508014554 | 49 | 223 | 0.9 | 5.2 | 0.00 | 0.84 | 0.84 | 92 | 1002.2 |
| 20260508013053 | 49 | 244 | 0.9 | 4.3 | 0.00 | 0.84 | 0.84 | 92 | 1001.9 |
| 20260508011555 | 48 | 214 | 0.9 | 4.3 | 0.00 | 0.84 | 0.84 | 92 | 1002.1 |
| 20260508010051 | 48 | 183 | 1.7 | 7.0 | 0.00 | 0.84 | 0.84 | 91 | 1002.2 |
| 20260508004554 | 49 | 184 | 2.6 | 5.2 | 0.00 | 0.84 | 0.84 | 91 | 1002.4 |
| 20260508003050 | 49 | 183 | 0.9 | 4.3 | 0.00 | 0.84 | 0.84 | 91 | 1002.4 |
| 20260508001549 | 49 | 178 | 2.6 | 7.0 | 0.00 | 0.84 | 0.84 | 91 | 1002.6 |
| 20260508000048 | 49 | 168 | 2.6 | 6.1 | 0.00 | 0.84 | 0.84 | 91 | 1002.8 |
| 20260507234558 | 49 | 168 | 2.6 | 7.0 | 0.00 | 0.84 | 0.84 | 91 | 1002.3 |
| 20260507233047 | 49 | 179 | 4.3 | 8.7 | 0.00 | 0.84 | 0.84 | 91 | 1002.8 |
| 20260507231550 | 49 | 158 | 2.6 | 6.1 | 0.00 | 0.84 | 0.84 | 91 | 1002.9 |
| 20260507230050 | 49 | 217 | 2.6 | 6.1 | 0.00 | 0.84 | 0.84 | 91 | 1002.9 |
| 20260507224549 | 49 | 182 | 0.9 | 4.3 | 0.00 | 0.84 | 0.84 | 91 | 1003.0 |
| 20260507223051 | 49 | 217 | 2.6 | 7.0 | 0.00 | 0.84 | 0.84 | 91 | 1003.2 |
| 20260507221548 | 49 | 198 | 4.3 | 12.2 | 0.00 | 0.84 | 0.84 | 91 | 1003.2 |
| 20260507220044 | 50 | 183 | 4.3 | 13.0 | 0.00 | 0.84 | 0.84 | 91 | 1003.0 |
| 20260507214542 | 49 | 164 | 3.5 | 14.8 | 0.03 | 0.84 | 0.84 | 91 | 1002.6 |
| 20260507213041 | 49 | 177 | 6.1 | 13.0 | 0.09 | 0.84 | 0.84 | 91 | 1002.5 |
| 20260507211538 | 49 | 191 | 6.1 | 13.9 | 0.20 | 0.84 | 0.84 | 90 | 1002.1 |
| 20260507210034 | 49 | 185 | 3.5 | 11.3 | 0.28 | 0.84 | 0.84 | 90 | 1003.3 |
| 20260507204531 | 50 | 144 | 5.2 | 13.0 | 0.37 | 0.81 | 0.81 | 90 | 1003.7 |